Location: Mary A Oil Field
(38.5606°N, 98.9545°W)
Time: 21:41:36
(UTC+00:00)

Cosmos 2237 Rocket - Pass Details

Date: 20 January 2020
Orbit: 836 x 848 km, 71.0° (Epoch: 27 February)

Event Time Altitude Azimuth Distance (km) Brightness Sun altitude
Rises 01:00:49 0° 341° (NNW) 3,394 5.4 -15.2°
Reaches altitude 10° 01:03:20 10° 346° (NNW) 2,456 4.6 -15.6°
Maximum altitude 01:08:51 56° 64° (ENE) 993 2.2 -16.7°
Drops below altitude 10° 01:14:21 10° 142° (SE) 2,442 4.4 -17.7°
Sets 01:16:49 0° 147° (SSE) 3,374 5.1 -18.2°
